[[{"header":{"parameterUnit":"m.s-1","parameterCategory":2,"la1":30.2991,"la2":30.254,"lo1":-89.0895,"lo2":-89.0444,"dy":0.0017,"dx":0.0017,"nx":28,"ny":28,"refTime":"2025-11-07T09:00:00:Z","depth":"0","parameterNumber":2,"parameterNumberName":"U-component_of_CURRENTS"},"data":[0,0,0,0,0,0,0,0,0,0,0,0,0,0,0,0,0,0,0,0,0,0,0,0,0,0,0,0,0,0,0,0,0,0,0,0,0,0,0,0,0,0,0,0,0,0,0,0,0,0,0,0,0,0,0,0,0,0,0.1324,0.1324,0,0.1345,0.1345,0.1345,0.1352,0.1352,0.1353,0.1353,0.1367,0.1367,0.1368,0,0,0,0,0,0,0,0,0,0,0,0,0,0.126,0.1261,0.1324,0.1324,0.1325,0.1345,0.1345,0.1345,0.1352,0.1353,0.1353,0.1353,0.1367,0.1367,0.1368,0,0,0,0,0,0,0,0,0,0,0,0,0,0.1284,0.1262,0.1324,0.1332,0.1333,0.1345,0.1345,0.1346,0.1352,0.1353,0.1353,0.1353,0.1367,0.1367,0.1368,0.1369,0,0,0.1369,0.1369,0,0,0,0,0,0,0,0,0.1283,0.1286,0.133,0.1331,0.1333,0.1348,0.1328,0.1354,0.1352,0.1343,0.1353,0.1353,0.1361,0.1362,0.1363,0.137,0.137,0.1369,0.137,0.137,0.137,0,0,0,0,0,0,0,0.1281,0.1285,0.1331,0.1331,0.1332,0.1325,0.1328,0.1333,0.135,0.1344,0.1345,0.135,0.1361,0.1363,0.1364,0.1371,0.1369,0.137,0.137,0.137,0.1374,0.1374,0,0,0,0,0,0,0.1283,0.1284,0.133,0.1331,0.1309,0.1326,0.133,0.1341,0.135,0.1352,0.135,0.135,0.1362,0.1363,0.1364,0.1368,0.137,0.137,0.1371,0.1374,0.1374,0.1374,0,0,0,0,0,0,0.1282,0.1287,0.1329,0.1309,0.1314,0.1327,0.134,0.1342,0.1343,0.1355,0.1356,0.1349,0.1362,0.1364,0.137,0.1369,0.137,0.1371,0.1375,0.1374,0.1374,0.1375,0,0,0,0,0,0,0.128,0.1287,0.1294,0.1309,0.1315,0.1335,0.134,0.1342,0.1347,0.1347,0.1355,0.1356,0.1362,0.137,0.1371,0.137,0.1371,0.1375,0.1375,0.1374,0.1375,0.1375,0.1375,0,0,0,0,0,0.1278,0.1289,0.1295,0.13,0.1326,0.1335,0.1337,0.1345,0.1347,0.1346,0.1354,0.1356,0.1368,0.137,0.1371,0.137,0.1375,0.1375,0.1374,0.1376,0.1375,0.1375,0,0,0,0,0,0,0.1262,0.1291,0.1298,0.1317,0.1324,0.1337,0.1339,0.1343,0.1348,0.135,0.1357,0.1359,0.1364,0.1366,0.1368,0.1369,0.137,0.137,0.1371,0.137,0.137,0.1383,0.1372,0,0,0,0,0,0.1263,0.1281,0.1299,0.1312,0.1317,0.1326,0.1331,0.1336,0.1345,0.1347,0.1352,0.1357,0.1363,0.1366,0.1371,0.1373,0.1458,0.1371,0.1371,0.1371,0.1382,0.1493,0.1505,0.1373,0.1373,0.1373,0,0,0.126,0.1278,0.1287,0.1309,0.1316,0.1325,0.1329,0.1336,0.1341,0.1348,0.1354,0.1358,0.1364,0.1368,0.137,0.137,0.1466,0.137,0.137,0.1381,0.1494,0.1508,0.152,0.1372,0.1372,0.1372,0,0,0.1261,0.1277,0.1292,0.1301,0.1316,0.1321,0.1323,0.1334,0.1337,0.1343,0.135,0.1354,0.136,0.1366,0.137,0.1369,0.146,0.1366,0.1375,0.1483,0.1496,0.1508,0.1697,0.1726,0.1365,0.1365,0.1365,0,0.1253,0.1282,0.1294,0.1308,0.1318,0.132,0.1332,0.1332,0.1342,0.1357,0.1344,0.1376,0.136,0.1389,0.1374,0.1369,0.1482,0.1377,0.1487,0.15,0.1513,0.1703,0.1735,0.1365,0.1365,0.1365,0.1365,0,0.1269,0.1289,0.1295,0.1318,0.1324,0.1334,0.1341,0.1345,0.1347,0.1359,0.1387,0.1381,0.1415,0.1389,0.1373,0.1442,0.1516,0.1479,0.1496,0.1527,0.1725,0.1759,0.1365,0.1365,0.1365,0.1365,0,0,0.1262,0.13,0.1303,0.1323,0.1335,0.1345,0.135,0.1372,0.1413,0.1399,0.1471,0.1422,0.1448,0.1452,0.1446,0.1497,0.1671,0.152,0.1526,0.1724,0.2003,0.2043,0.2084,0.1667,0.1671,0.1674,0.2131,0,0.1271,0.1306,0.132,0.1346,0.1365,0.1372,0.139,0.1407,0.1435,0.1506,0.15,0.1565,0.1468,0.1517,0.1544,0.1647,0.175,0.1557,0.1928,0.1941,0.1984,0.2118,0.209,0.2491,0.2164,0.217,0.2174,0,0.1286,0.1311,0.1343,0.1388,0.1399,0.1415,0.1473,0.1493,0.1569,0.1605,0.1655,0.1697,0.1774,0.1695,0.1899,0.1795,0.1902,0.1967,0.1986,0.2041,0.204,0.2392,0.2565,0.245,0.2226,0.2222,0.2218,0,0.1289,0.133,0.1361,0.1372,0.1417,0.1441,0.1468,0.1527,0.1582,0.1709,0.1806,0.1884,0.2002,0.2087,0.2192,0.209,0.2464,0.2353,0.2508,0.2517,0.2573,0.2577,0.2683,0.2532,0.2531,0.253,0.2528,0,0.1303,0.1327,0.1373,0.139,0.1439,0.147,0.1542,0.1586,0.1709,0.1827,0.1879,0.2031,0.2105,0.2302,0.2339,0.2571,0.2609,0.2574,0.2638,0.2577,0.2576,0.2536,0.243,0.2547,0.2543,0.254,0.2537,0,0.1309,0.1332,0.1368,0.1423,0.1441,0.148,0.1573,0.166,0.1768,0.1949,0.2019,0.2232,0.251,0.2618,0.2854,0.2823,0.2931,0.3063,0.3025,0.3071,0.3013,0.2908,0.3024,0.293,0.3321,0.3325,0.3328,0,0.1325,0.135,0.1386,0.1421,0.145,0.151,0.1578,0.167,0.1794,0.2071,0.2206,0.2532,0.2744,0.3133,0.321,0.3408,0.3188,0.3455,0.3185,0.3065,0.2998,0.2792,0.2684,0.3319,0.3321,0.3324,0.3326,0,0.1378,0.1382,0.1417,0.1479,0.1542,0.1597,0.1717,0.1804,0.1976,0.215,0.2461,0.2656,0.3058,0.327,0.3517,0.3573,0.3267,0.3505,0.3388,0.3023,0.2806,0.2727,0.3011,0.3346,0.3344,0.3342,0.3341,0.334,0.1442,0.147,0.1532,0.1587,0.1638,0.1731,0.1786,0.194,0.2122,0.2385,0.258,0.2841,0.3155,0.35,0.3564,0.3608,0.3464,0.3486,0.3401,0.3228,0.3004,0.336,0.3715,0.3715,0.3716,0.3716,0.3716,0,0.1589,0.1621,0.1662,0.173,0.1791,0.1797,0.1931,0.2003,0.22,0.2429,0.2653,0.2946,0.3206,0.3403,0.357,0.3482,0.3273,0.3398,0.3077,0.2991,0.3375,0.323,0.3485,0.3485,0.3485,0.3485,0.3485,0.3485,0.1695,0.179,0.1794,0.1906,0.1921,0.2008,0.2067,0.2147,0.2284,0.2492,0.2639,0.2769,0.3054,0.3342,0.3362,0.329,0.297,0.2956,0.2829,0.3058,0.3055,0.3053,0.2891,0.307,0.307,0.2364,0.2358,0.2354]},{"header":{"parameterUnit":"m.s-1","parameterCategory":2,"la1":30.2991,"la2":30.254,"lo1":-89.0895,"lo2":-89.0444,"dy":0.0017,"dx":0.0017,"nx":28,"ny":28,"refTime":"2025-11-07T09:00:00:Z","depth":"0","parameterNumber":3,"parameterNumberName":"V-component_of_CURRENTS"},"data":[0,0,0,0,0,0,0,0,0,0,0,0,0,0,0,0,0,0,0,0,0,0,0,0,0,0,0,0,0,0,0,0,0,0,0,0,0,0,0,0,0,0,0,0,0,0,0,0,0,0,0,0,0,0,0,0,0,0,-0.0378,-0.0378,0,-0.0409,-0.041,-0.041,-0.0432,-0.0433,-0.0433,-0.0433,-0.0472,-0.0473,-0.0474,0,0,0,0,0,0,0,0,0,0,0,0,0,-0.0335,-0.0336,-0.0378,-0.0378,-0.0379,-0.0409,-0.041,-0.041,-0.0432,-0.0433,-0.0433,-0.0433,-0.0472,-0.0473,-0.0474,0,0,0,0,0,0,0,0,0,0,0,0,0,-0.0359,-0.0336,-0.0378,-0.0394,-0.0395,-0.0409,-0.041,-0.041,-0.0432,-0.0433,-0.0433,-0.0433,-0.0471,-0.0473,-0.0474,-0.0476,0,0,-0.0478,-0.0478,0,0,0,0,0,0,0,0,-0.0358,-0.036,-0.0391,-0.0393,-0.0395,-0.0417,-0.0409,-0.0433,-0.0432,-0.0418,-0.0433,-0.0433,-0.0454,-0.0457,-0.0462,-0.0478,-0.048,-0.0478,-0.0479,-0.0479,-0.048,0,0,0,0,0,0,0,-0.0356,-0.0359,-0.039,-0.0391,-0.0394,-0.0398,-0.0402,-0.0413,-0.0434,-0.042,-0.0421,-0.0425,-0.0455,-0.0461,-0.0463,-0.048,-0.0478,-0.0479,-0.048,-0.048,-0.0497,-0.0496,0,0,0,0,0,0,-0.0352,-0.0358,-0.0389,-0.0391,-0.0376,-0.0399,-0.0403,-0.041,-0.0434,-0.0438,-0.0424,-0.0426,-0.0458,-0.0462,-0.0465,-0.0484,-0.0479,-0.048,-0.0481,-0.0497,-0.0497,-0.0496,0,0,0,0,0,0,-0.0351,-0.0355,-0.0388,-0.0375,-0.038,-0.0399,-0.0407,-0.041,-0.0416,-0.0438,-0.0442,-0.0427,-0.0459,-0.0463,-0.0475,-0.0485,-0.0481,-0.0482,-0.0497,-0.0497,-0.0496,-0.0512,0,0,0,0,0,0,-0.035,-0.0354,-0.0357,-0.0375,-0.038,-0.0396,-0.0406,-0.0411,-0.0418,-0.0419,-0.0441,-0.0445,-0.0459,-0.0473,-0.0477,-0.0487,-0.0483,-0.0498,-0.0497,-0.0497,-0.0512,-0.0512,-0.0513,0,0,0,0,0,-0.0348,-0.0353,-0.0357,-0.0361,-0.0384,-0.0396,-0.0399,-0.0414,-0.0417,-0.042,-0.0434,-0.0444,-0.0471,-0.0474,-0.0478,-0.0489,-0.0498,-0.0497,-0.0497,-0.0512,-0.0512,-0.0513,0,0,0,0,0,0,-0.0334,-0.0356,-0.0361,-0.0372,-0.0382,-0.04,-0.0405,-0.0411,-0.0424,-0.0426,-0.0444,-0.0449,-0.0463,-0.0467,-0.0469,-0.0488,-0.0485,-0.0485,-0.0495,-0.0495,-0.0496,-0.0479,-0.0484,0,0,0,0,0,-0.0332,-0.0343,-0.0359,-0.0367,-0.0372,-0.0386,-0.0392,-0.0401,-0.0415,-0.042,-0.0435,-0.0447,-0.0462,-0.0471,-0.0482,-0.0494,-0.0464,-0.05,-0.05,-0.05,-0.0487,-0.0454,-0.045,-0.0494,-0.0494,-0.0494,0,0,-0.033,-0.0342,-0.0349,-0.0365,-0.0374,-0.0386,-0.039,-0.0399,-0.0411,-0.0422,-0.044,-0.0449,-0.0463,-0.048,-0.0486,-0.0487,-0.0469,-0.0499,-0.05,-0.0486,-0.0453,-0.0448,-0.0445,-0.0493,-0.0493,-0.0493,0,0,-0.033,-0.0339,-0.0349,-0.0358,-0.0372,-0.0383,-0.0383,-0.0399,-0.0407,-0.0422,-0.0434,-0.0444,-0.0465,-0.0479,-0.0489,-0.0492,-0.047,-0.0496,-0.049,-0.0458,-0.0454,-0.0451,-0.0396,-0.0387,-0.0499,-0.0499,-0.0499,0,-0.0324,-0.0339,-0.0351,-0.0362,-0.0368,-0.0381,-0.0387,-0.0402,-0.042,-0.041,-0.0427,-0.0433,-0.0465,-0.0468,-0.0486,-0.0495,-0.0458,-0.0494,-0.0459,-0.0454,-0.045,-0.0395,-0.0385,-0.0499,-0.0499,-0.0499,-0.0499,0,-0.0333,-0.0344,-0.0348,-0.0369,-0.0376,-0.0383,-0.0401,-0.0403,-0.041,-0.0412,-0.0405,-0.0436,-0.0425,-0.0456,-0.0486,-0.0472,-0.0448,-0.0462,-0.0459,-0.0447,-0.0389,-0.0378,-0.05,-0.05,-0.05,-0.05,0,0,-0.0316,-0.0349,-0.0349,-0.0343,-0.0377,-0.0369,-0.0392,-0.039,-0.0345,-0.0391,-0.0331,-0.0414,-0.0395,-0.0404,-0.0429,-0.0436,-0.0403,-0.0444,-0.0442,-0.039,-0.0304,-0.0298,-0.0285,-0.0408,-0.0407,-0.0405,-0.0271,0,-0.0315,-0.0325,-0.0351,-0.0347,-0.0345,-0.0361,-0.0355,-0.0351,-0.0335,-0.0277,-0.0317,-0.0268,-0.0384,-0.0344,-0.0384,-0.0376,-0.0376,-0.0436,-0.0322,-0.0318,-0.0316,-0.0274,-0.0282,-0.0165,-0.0261,-0.0259,-0.0258,0,-0.0311,-0.0314,-0.0315,-0.0295,-0.029,-0.0286,-0.0229,-0.0222,-0.0172,-0.0145,-0.0132,-0.0122,-0.0139,-0.0214,-0.0237,-0.0264,-0.0289,-0.0306,-0.03,-0.0279,-0.0292,-0.0195,-0.0142,-0.0372,-0.0241,-0.0242,-0.0244,0,-0.0264,-0.0279,-0.0268,-0.0271,-0.0261,-0.0239,-0.0217,-0.017,-0.0092,-0.0022,0.0084,0.0033,0.0108,0.0011,-0.0063,-0.0128,-0.005,-0.0131,-0.0148,-0.0146,-0.0123,-0.0122,-0.0279,-0.013,-0.0131,-0.0131,-0.0131,0,-0.0243,-0.0224,-0.0233,-0.0219,-0.0146,-0.0164,-0.0054,-0.0024,0.0088,0.0243,0.0183,0.0329,0.0173,0.0192,0.0041,0.0001,0.0036,-0.0122,-0.0109,-0.0128,-0.0129,-0.0304,-0.0396,-0.0126,-0.0127,-0.0128,-0.0129,0,-0.0177,-0.0206,-0.0162,-0.014,-0.0121,-0.005,0.0069,0.0181,0.0261,0.0477,0.0528,0.0606,0.063,0.0473,0.0397,0.0214,0.0037,0.0104,0.0101,0.0108,-0.0186,-0.0275,-0.0299,-0.0365,0.0092,0.0093,0.0094,0,-0.0135,-0.012,-0.0075,-0.001,0.001,0.0103,0.0197,0.0267,0.042,0.0668,0.0819,0.092,0.1023,0.0897,0.0602,0.038,0.0171,0.0216,0.0051,-0.0184,-0.0275,-0.0338,-0.0399,0.009,0.0091,0.0091,0.0092,0,-0.0016,-0.0009,0.0044,0.0157,0.0252,0.036,0.0507,0.0646,0.0792,0.0984,0.1276,0.1379,0.1282,0.1097,0.0776,0.056,0.0068,0.0221,-0.002,-0.0282,-0.0356,-0.0419,-0.0007,0.0097,0.0097,0.0096,0.0096,0.0096,0.0125,0.0197,0.0275,0.0384,0.0484,0.0648,0.0769,0.0958,0.1208,0.1522,0.1594,0.1773,0.1435,0.1005,0.0727,0.0122,0.0149,-0.0107,-0.0184,-0.022,-0.0337,0.0095,0.0196,0.0196,0.0196,0.0196,0.0196,0,0.0346,0.0409,0.0514,0.0652,0.0772,0.0779,0.1011,0.1157,0.1456,0.172,0.1941,0.1841,0.1426,0.0925,0.0173,-0.0231,-0.0408,-0.0473,-0.0614,-0.0651,-0.0268,-0.0332,-0.0343,-0.0343,-0.0343,-0.0343,-0.0342,-0.0342,0.0494,0.065,0.0671,0.0901,0.0974,0.1157,0.128,0.1503,0.1706,0.2015,0.211,0.214,0.1689,0.0419,-0.0469,-0.0679,-0.098,-0.0997,-0.1124,-0.096,-0.0935,-0.0912,-0.1002,-0.1154,-0.1155,-0.1498,-0.1502,-0.1505]}],[{"header":{"parameterUnit":"m.s-1","parameterCategory":2,"la1":30.2991,"la2":30.254,"lo1":-89.0895,"lo2":-89.0444,"dy":0.0017,"dx":0.0017,"nx":28,"ny":28,"refTime":"2025-11-07T09:00:00:Z","depth":"2","parameterNumber":2,"parameterNumberName":"U-component_of_CURRENTS"},"data":[0,0,0,0,0,0,0,0,0,0,0,0,0,0,0,0,0,0,0,0,0,0,0,0,0,0,0,0,0,0,0,0,0,0,0,0,0,0,0,0,0,0,0,0,0,0,0,0,0,0,0,0,0,0,0,0,0,0,0.0794,0.0795,0,0.0826,0.0826,0.0827,0.0868,0.0868,0.0869,0.0869,0.0913,0.0913,0.0914,0,0,0,0,0,0,0,0,0,0,0,0,0,0.0742,0.0743,0.0794,0.0795,0.0795,0.0826,0.0827,0.0827,0.0868,0.0868,0.0869,0.087,0.0912,0.0913,0.0914,0,0,0,0,0,0,0,0,0,0,0,0,0,0.0769,0.0743,0.0794,0.0818,0.0821,0.0826,0.0827,0.0827,0.0867,0.0868,0.0869,0.087,0.0912,0.0913,0.0914,0.0902,0,0,0.0917,0.0917,0,0,0,0,0,0,0,0,0.0768,0.0771,0.0814,0.0817,0.0819,0.0843,0.0824,0.0853,0.0867,0.0851,0.0869,0.087,0.0889,0.0892,0.0897,0.0904,0.0906,0.0917,0.0917,0.0918,0.0918,0,0,0,0,0,0,0,0.0766,0.077,0.0808,0.0815,0.0818,0.0818,0.0823,0.0829,0.0866,0.0852,0.0855,0.0857,0.0891,0.0896,0.0899,0.0907,0.0917,0.0918,0.0918,0.0919,0.0943,0.0943,0,0,0,0,0,0,0.0761,0.0768,0.0807,0.0809,0.0794,0.0818,0.0824,0.0835,0.0865,0.087,0.0856,0.0858,0.0894,0.0897,0.09,0.0937,0.0918,0.0919,0.0919,0.0943,0.0943,0.0943,0,0,0,0,0,0,0.0759,0.0764,0.0806,0.0788,0.0793,0.0818,0.083,0.0835,0.0856,0.0868,0.0874,0.0873,0.0895,0.0899,0.092,0.0937,0.0919,0.092,0.0943,0.0943,0.0943,0.0979,0,0,0,0,0,0,0.0758,0.0764,0.0771,0.0788,0.0794,0.0826,0.083,0.0835,0.0854,0.0858,0.0884,0.0888,0.0896,0.0919,0.0921,0.0938,0.0921,0.0943,0.0943,0.0943,0.0978,0.098,0.0983,0,0,0,0,0,0.0756,0.0764,0.0772,0.0776,0.0804,0.0827,0.0831,0.0851,0.0854,0.0871,0.0883,0.0888,0.0921,0.092,0.0922,0.094,0.0943,0.0943,0.0943,0.0976,0.098,0.0982,0,0,0,0,0,0,0.0745,0.0769,0.0778,0.0793,0.0816,0.0834,0.0846,0.0856,0.0877,0.0881,0.0892,0.0897,0.0917,0.092,0.0917,0.0945,0.0931,0.0932,0.0956,0.0959,0.0961,0.0957,0.0921,0,0,0,0,0,0.0744,0.0755,0.0783,0.0793,0.0809,0.0828,0.0838,0.0854,0.0871,0.0883,0.0895,0.0906,0.0916,0.0932,0.0936,0.0957,0.1002,0.0967,0.0969,0.0972,0.0969,0.1054,0.1065,0.0944,0.0944,0.0944,0,0,0.0738,0.0753,0.0759,0.0791,0.0809,0.0825,0.0838,0.0861,0.0872,0.0882,0.0901,0.0911,0.092,0.0941,0.0951,0.0952,0.1036,0.0972,0.0974,0.097,0.1056,0.1068,0.1079,0.0944,0.0944,0.0944,0,0,0.0733,0.0753,0.0766,0.0782,0.0812,0.0828,0.0837,0.0865,0.0883,0.0898,0.0907,0.0928,0.0941,0.0958,0.0966,0.0981,0.1039,0.0987,0.101,0.1094,0.1105,0.1116,0.1224,0.1244,0.0998,0.0999,0.0999,0,0.0726,0.0751,0.0773,0.0786,0.0806,0.0829,0.0854,0.0863,0.089,0.0917,0.0907,0.0944,0.0944,0.0987,0.0988,0.0988,0.1061,0.1003,0.1101,0.1111,0.1122,0.123,0.1252,0.1,0.1,0.1,0.1,0,0.0733,0.0752,0.0762,0.0789,0.081,0.0836,0.0859,0.0883,0.09,0.0918,0.0963,0.0967,0.1009,0.0999,0.0994,0.1067,0.1107,0.1091,0.11,0.1137,0.1248,0.127,0.1003,0.1002,0.1002,0.1001,0,0,0.0727,0.0764,0.0767,0.0792,0.0823,0.0847,0.0869,0.0922,0.0966,0.0968,0.1048,0.1022,0.1054,0.1062,0.1075,0.112,0.125,0.114,0.1144,0.1262,0.1482,0.1455,0.1477,0.1273,0.1276,0.1278,0.1545,0,0.0737,0.0773,0.0788,0.0822,0.0853,0.0882,0.091,0.0949,0.0994,0.1073,0.1086,0.1154,0.1073,0.1133,0.1158,0.1242,0.1304,0.1182,0.1416,0.1423,0.1405,0.1498,0.1329,0.1547,0.1567,0.157,0.1573,0,0.0748,0.0776,0.0826,0.0876,0.0896,0.092,0.1013,0.1042,0.1134,0.118,0.1239,0.1276,0.1355,0.1287,0.1423,0.1364,0.142,0.1455,0.1467,0.1439,0.1435,0.1504,0.1586,0.161,0.1607,0.1604,0.1601,0,0.0759,0.0802,0.0856,0.0868,0.0924,0.097,0.1013,0.1091,0.115,0.1293,0.1378,0.1447,0.1552,0.1593,0.1644,0.1576,0.1813,0.1741,0.1762,0.1764,0.1657,0.1643,0.1836,0.1836,0.1835,0.1834,0.1833,0,0.0772,0.0805,0.0874,0.0897,0.0969,0.101,0.1108,0.116,0.1286,0.1385,0.1457,0.1556,0.1635,0.176,0.1756,0.1853,0.1918,0.1794,0.1833,0.1666,0.165,0.171,0.1692,0.1844,0.1842,0.184,0.1838,0,0.0775,0.0812,0.087,0.0949,0.0977,0.1039,0.1151,0.1229,0.1348,0.1503,0.157,0.1721,0.1895,0.1967,0.2107,0.2034,0.2105,0.2116,0.1928,0.1936,0.1974,0.1954,0.2181,0.2183,0.2184,0.2185,0.2186,0,0.0796,0.0831,0.0907,0.0949,0.0994,0.1086,0.1154,0.1255,0.1347,0.1569,0.1656,0.1891,0.1981,0.2195,0.2204,0.2277,0.2245,0.212,0.1906,0.1997,0.2012,0.199,0.1969,0.1812,0.181,0.1808,0.1807,0,0.084,0.0864,0.091,0.0999,0.1073,0.1118,0.1229,0.1284,0.1433,0.1551,0.1708,0.1799,0.205,0.2058,0.2192,0.2163,0.2086,0.2081,0.2289,0.1722,0.1662,0.1671,0.1661,0.179,0.1791,0.1792,0.1793,0.1794,0.0879,0.0911,0.0981,0.1046,0.112,0.1139,0.1139,0.1256,0.1342,0.1482,0.1634,0.1743,0.1849,0.1959,0.1957,0.1982,0.2068,0.1917,0.1918,0.1922,0.1802,0.1744,0.1869,0.1871,0.1872,0.1874,0.1875,0,0.0903,0.0943,0.1024,0.106,0.1084,0.1134,0.1179,0.116,0.1197,0.1396,0.149,0.1474,0.1537,0.1687,0.1693,0.1685,0.1609,0.1617,0.1493,0.1512,0.1529,0.1382,0.1342,0.134,0.1338,0.1337,0,0,0.0923,0.0945,0.0958,0.0981,0.1026,0.0995,0.0965,0.098,0.1076,0.1137,0.1237,0.1426,0.1587,0.1433,0.1434,0.1397,0.1427,0.1343,0.1771,0.1642,0.1656,0.171,0.1508,0,0,0,0,0]},{"header":{"parameterUnit":"m.s-1","parameterCategory":2,"la1":30.2991,"la2":30.254,"lo1":-89.0895,"lo2":-89.0444,"dy":0.0017,"dx":0.0017,"nx":28,"ny":28,"refTime":"2025-11-07T09:00:00:Z","depth":"2","parameterNumber":3,"parameterNumberName":"V-component_of_CURRENTS"},"data":[0,0,0,0,0,0,0,0,0,0,0,0,0,0,0,0,0,0,0,0,0,0,0,0,0,0,0,0,0,0,0,0,0,0,0,0,0,0,0,0,0,0,0,0,0,0,0,0,0,0,0,0,0,0,0,0,0,0,-0.0353,-0.0354,0,-0.0383,-0.0383,-0.0384,-0.0415,-0.0415,-0.0415,-0.0416,-0.0468,-0.0469,-0.047,0,0,0,0,0,0,0,0,0,0,0,0,0,-0.0314,-0.0315,-0.0353,-0.0354,-0.0354,-0.0383,-0.0383,-0.0384,-0.0415,-0.0415,-0.0415,-0.0416,-0.0468,-0.0469,-0.047,0,0,0,0,0,0,0,0,0,0,0,0,0,-0.0337,-0.0315,-0.0353,-0.0372,-0.0374,-0.0383,-0.0383,-0.0384,-0.0414,-0.0415,-0.0416,-0.0416,-0.0467,-0.0469,-0.047,-0.0469,0,0,-0.0475,-0.0476,0,0,0,0,0,0,0,0,-0.0336,-0.0338,-0.0369,-0.0371,-0.0373,-0.0395,-0.0389,-0.0413,-0.0414,-0.04,-0.0416,-0.0416,-0.0445,-0.0449,-0.0453,-0.0471,-0.0473,-0.0475,-0.0476,-0.0477,-0.0477,0,0,0,0,0,0,0,-0.0334,-0.0337,-0.0366,-0.037,-0.0372,-0.0376,-0.038,-0.0393,-0.042,-0.0401,-0.0403,-0.0406,-0.0447,-0.0452,-0.0455,-0.0474,-0.0475,-0.0477,-0.0478,-0.0478,-0.0507,-0.0507,0,0,0,0,0,0,-0.0329,-0.0336,-0.0365,-0.0366,-0.0355,-0.0377,-0.0381,-0.0388,-0.0419,-0.0424,-0.0405,-0.0407,-0.0449,-0.0453,-0.0457,-0.0483,-0.0477,-0.0478,-0.0479,-0.0507,-0.0507,-0.0507,0,0,0,0,0,0,-0.0328,-0.0332,-0.0363,-0.0351,-0.0355,-0.0377,-0.0384,-0.0388,-0.0397,-0.0422,-0.0427,-0.041,-0.0449,-0.0455,-0.0474,-0.0484,-0.0479,-0.0481,-0.0508,-0.0507,-0.0507,-0.0518,0,0,0,0,0,0,-0.0327,-0.0331,-0.0335,-0.0351,-0.0356,-0.0373,-0.0384,-0.0388,-0.0398,-0.04,-0.0428,-0.0433,-0.045,-0.0472,-0.0476,-0.0486,-0.0482,-0.0508,-0.0508,-0.0507,-0.0518,-0.0519,-0.0519,0,0,0,0,0,-0.0326,-0.0327,-0.0335,-0.0338,-0.036,-0.0373,-0.0376,-0.0393,-0.0397,-0.0403,-0.0421,-0.0433,-0.0472,-0.0473,-0.0478,-0.0489,-0.0508,-0.0508,-0.0507,-0.0518,-0.0519,-0.0519,0,0,0,0,0,0,-0.0309,-0.0331,-0.034,-0.0347,-0.0361,-0.0378,-0.0383,-0.0391,-0.0409,-0.0413,-0.0434,-0.044,-0.046,-0.0467,-0.0467,-0.0494,-0.0491,-0.0491,-0.0497,-0.0498,-0.0498,-0.048,-0.0483,0,0,0,0,0,-0.0307,-0.0315,-0.0336,-0.034,-0.0348,-0.0365,-0.0371,-0.0383,-0.0399,-0.0407,-0.0425,-0.0442,-0.046,-0.0474,-0.0487,-0.0503,-0.0495,-0.0511,-0.0511,-0.0512,-0.0499,-0.0491,-0.049,-0.0506,-0.0506,-0.0506,0,0,-0.03,-0.0312,-0.0317,-0.0337,-0.0349,-0.0361,-0.0371,-0.0382,-0.0392,-0.041,-0.0428,-0.0444,-0.0463,-0.0484,-0.0493,-0.0494,-0.0504,-0.0511,-0.0512,-0.0498,-0.0491,-0.0489,-0.0488,-0.0506,-0.0506,-0.0506,0,0,-0.0292,-0.0304,-0.0312,-0.0324,-0.0343,-0.0355,-0.0357,-0.0377,-0.0391,-0.0407,-0.0424,-0.044,-0.0467,-0.0484,-0.0496,-0.0502,-0.0504,-0.0509,-0.0503,-0.0497,-0.0496,-0.0494,-0.049,-0.0488,-0.0513,-0.0513,-0.0513,0,-0.0283,-0.0297,-0.0315,-0.0325,-0.0333,-0.0351,-0.0361,-0.0375,-0.0398,-0.04,-0.0414,-0.0438,-0.0465,-0.0482,-0.0494,-0.0504,-0.0498,-0.0505,-0.0498,-0.0496,-0.0495,-0.049,-0.0488,-0.0514,-0.0514,-0.0514,-0.0514,0,-0.0283,-0.0295,-0.0299,-0.032,-0.0332,-0.034,-0.0364,-0.0372,-0.0386,-0.0395,-0.0409,-0.0439,-0.0445,-0.0469,-0.0491,-0.0495,-0.0494,-0.0498,-0.0498,-0.0494,-0.049,-0.0487,-0.0514,-0.0514,-0.0514,-0.0514,0,0,-0.0257,-0.0293,-0.0294,-0.0297,-0.033,-0.033,-0.0353,-0.0367,-0.0346,-0.0387,-0.0362,-0.0427,-0.0424,-0.0436,-0.0461,-0.0474,-0.0478,-0.0485,-0.0485,-0.0482,-0.0462,-0.051,-0.0511,-0.0481,-0.0481,-0.048,-0.0468,0,-0.0252,-0.0265,-0.0291,-0.0294,-0.03,-0.0324,-0.0326,-0.0338,-0.0342,-0.0316,-0.0358,-0.0337,-0.0417,-0.0397,-0.0435,-0.0448,-0.0469,-0.048,-0.0464,-0.0464,-0.0508,-0.051,-0.05,-0.0491,-0.0465,-0.0465,-0.0464,0,-0.0242,-0.025,-0.0261,-0.0263,-0.0265,-0.0265,-0.0248,-0.025,-0.0238,-0.023,-0.0239,-0.0245,-0.0274,-0.0319,-0.038,-0.0382,-0.0426,-0.0452,-0.0452,-0.0486,-0.0506,-0.0489,-0.0487,-0.046,-0.046,-0.0461,-0.0461,0,-0.0201,-0.0222,-0.0226,-0.023,-0.024,-0.0235,-0.0229,-0.0218,-0.0178,-0.0148,-0.0088,-0.0149,-0.0115,-0.0206,-0.0295,-0.0323,-0.0341,-0.0379,-0.0469,-0.0472,-0.0454,-0.0458,-0.0414,-0.0414,-0.0414,-0.0414,-0.0414,0,-0.0176,-0.0174,-0.0197,-0.0191,-0.0152,-0.0179,-0.0118,-0.0109,-0.0054,0.0025,-0.0021,0.0031,-0.0079,-0.0113,-0.0238,-0.0346,-0.0302,-0.0462,-0.0471,-0.046,-0.0464,-0.0426,-0.0428,-0.0413,-0.0414,-0.0414,-0.0414,0,-0.0128,-0.0155,-0.0138,-0.0141,-0.0132,-0.0092,-0.0029,0.0033,0.0073,0.0185,0.0214,0.0203,0.0148,0.0024,-0.0085,-0.0235,-0.0349,-0.0396,-0.0382,-0.0392,-0.0502,-0.0504,-0.05,-0.0502,-0.0503,-0.0504,-0.0505,0,-0.0111,-0.0105,-0.0082,-0.0044,-0.004,0.0013,0.0064,0.01,0.018,0.0276,0.0348,0.0344,0.0291,0.0101,-0.0102,-0.0307,-0.0326,-0.0438,-0.0512,-0.0501,-0.051,-0.051,-0.0511,-0.0488,-0.0488,-0.0489,-0.0489,0,-0.006,-0.0052,-0.0022,0.0052,0.0107,0.0166,0.0242,0.0319,0.0382,0.0459,0.0514,0.0468,0.0307,0.0087,-0.0163,-0.0314,-0.0417,-0.046,-0.0415,-0.0483,-0.0492,-0.0501,-0.0501,-0.0494,-0.0494,-0.0494,-0.0493,-0.0493,-0.0005,0.0033,0.0081,0.0151,0.0226,0.0302,0.0376,0.0457,0.0555,0.065,0.0587,0.0542,0.0308,-0.0022,-0.0244,-0.0431,-0.0456,-0.0561,-0.0557,-0.0553,-0.0569,-0.0582,-0.0603,-0.0604,-0.0604,-0.0604,-0.0604,0,0.0042,0.0088,0.0171,0.0248,0.0331,0.0361,0.0488,0.0561,0.0667,0.0705,0.0688,0.0474,0.021,0.0011,-0.0291,-0.0543,-0.0543,-0.0593,-0.0544,-0.054,-0.0536,-0.0549,-0.0579,-0.0579,-0.0579,-0.0579,0,0,0.0073,0.0133,0.016,0.0295,0.0379,0.0518,0.0594,0.0701,0.0776,0.0772,0.0751,0.0596,0.0311,0.0102,-0.0212,-0.037,-0.0392,-0.0403,-0.041,-0.0315,-0.0306,-0.0519,-0.0536,0,0,0,0,0]}],[{"header":{"parameterUnit":"m.s-1","parameterCategory":2,"la1":30.2991,"la2":30.254,"lo1":-89.0895,"lo2":-89.0444,"dy":0.0017,"dx":0.0017,"nx":28,"ny":28,"refTime":"2025-11-07T09:00:00:Z","depth":"4","parameterNumber":2,"parameterNumberName":"U-component_of_CURRENTS"},"data":[0,0,0,0,0,0,0,0,0,0,0,0,0,0,0,0,0,0,0,0,0,0,0,0,0,0,0,0,0,0,0,0,0,0,0,0,0,0,0,0,0,0,0,0,0,0,0,0,0,0,0,0,0,0,0,0,0,0,0.0322,0.0322,0,0.036,0.036,0.0361,0.0395,0.0395,0.0396,0.0397,0.0422,0.0422,0.0422,0,0,0,0,0,0,0,0,0,0,0,0,0,0.0261,0.0262,0.0322,0.0322,0.0323,0.036,0.036,0.0361,0.0395,0.0396,0.0396,0.0397,0.0422,0.0422,0.0422,0,0,0,0,0,0,0,0,0,0,0,0,0,0.029,0.0262,0.0321,0.0346,0.0349,0.036,0.036,0.0361,0.0395,0.0396,0.0396,0.0397,0.0422,0.0422,0.0422,0.0406,0,0,0.0423,0.0423,0,0,0,0,0,0,0,0,0.0289,0.0292,0.0342,0.0344,0.0347,0.0375,0.0349,0.0376,0.0394,0.0375,0.0397,0.0398,0.0406,0.0408,0.041,0.0407,0.0408,0.0423,0.0423,0.0423,0.0423,0,0,0,0,0,0,0,0.0287,0.0291,0.0335,0.0342,0.0346,0.0349,0.0354,0.0354,0.0383,0.0377,0.038,0.0387,0.0407,0.041,0.0411,0.0409,0.0423,0.0423,0.0423,0.0423,0.0449,0.0449,0,0,0,0,0,0,0.0286,0.0289,0.0334,0.0336,0.0322,0.035,0.0356,0.0364,0.0384,0.0388,0.0386,0.0389,0.0409,0.0411,0.0412,0.045,0.0423,0.0423,0.0424,0.0448,0.0449,0.045,0,0,0,0,0,0,0.0284,0.029,0.0332,0.0315,0.0321,0.035,0.0359,0.0364,0.0385,0.0391,0.0396,0.0405,0.041,0.0412,0.0431,0.0449,0.0424,0.0424,0.0448,0.0449,0.0449,0.0491,0,0,0,0,0,0,0.0283,0.0289,0.0297,0.0315,0.0322,0.0348,0.0359,0.0364,0.0388,0.0392,0.0408,0.041,0.0411,0.043,0.0431,0.0449,0.0424,0.0447,0.0448,0.0449,0.0488,0.0493,0.0496,0,0,0,0,0,0.028,0.0285,0.0297,0.0303,0.0332,0.0349,0.0352,0.0375,0.0388,0.0397,0.0414,0.0411,0.0437,0.0431,0.0431,0.045,0.0446,0.0448,0.0449,0.0487,0.0492,0.0496,0,0,0,0,0,0,0.0261,0.029,0.0303,0.0317,0.0337,0.0355,0.0368,0.0382,0.0401,0.0412,0.0417,0.042,0.0441,0.0438,0.0431,0.046,0.0441,0.0443,0.047,0.0475,0.0479,0.0488,0.0424,0,0,0,0,0,0.0262,0.0276,0.0301,0.0313,0.0326,0.035,0.0362,0.0379,0.0397,0.0408,0.042,0.0433,0.0442,0.0454,0.0456,0.0473,0.0479,0.0485,0.0489,0.0492,0.05,0.053,0.0538,0.0454,0.0454,0.0454,0,0,0.0255,0.0275,0.0282,0.0311,0.033,0.035,0.0359,0.0384,0.0409,0.0406,0.0442,0.0444,0.0448,0.0468,0.0478,0.0473,0.0518,0.0494,0.0497,0.0503,0.0532,0.054,0.0548,0.0454,0.0454,0.0454,0,0,0.0251,0.0273,0.0285,0.0306,0.0341,0.0357,0.0368,0.0398,0.0422,0.0448,0.0456,0.0475,0.0486,0.05,0.0506,0.0531,0.0533,0.053,0.0566,0.0595,0.0603,0.0609,0.0625,0.0633,0.0539,0.0539,0.0539,0,0.0245,0.0268,0.029,0.0312,0.0334,0.0363,0.0385,0.041,0.0443,0.047,0.0466,0.0503,0.0503,0.0539,0.0549,0.0542,0.0555,0.0549,0.0602,0.0609,0.0615,0.0629,0.0637,0.0541,0.0541,0.0541,0.054,0,0.0252,0.0277,0.0288,0.0327,0.035,0.0375,0.0414,0.0445,0.0475,0.0502,0.0546,0.0549,0.0574,0.0575,0.057,0.0616,0.0609,0.0599,0.0593,0.0626,0.0638,0.0646,0.0544,0.0543,0.0543,0.0542,0,0,0.0225,0.0282,0.0287,0.0315,0.0366,0.0386,0.0434,0.0487,0.0529,0.0559,0.0609,0.0626,0.0636,0.0643,0.0642,0.0668,0.0716,0.0657,0.0658,0.0677,0.0779,0.0757,0.0763,0.0721,0.0723,0.0724,0.0769,0,0.0229,0.0269,0.0299,0.0343,0.0371,0.0418,0.046,0.0514,0.0559,0.0612,0.0641,0.0678,0.0661,0.0676,0.0701,0.0712,0.0739,0.0704,0.0739,0.074,0.0722,0.0773,0.0729,0.0775,0.0776,0.0778,0.0779,0,0.0229,0.0261,0.0302,0.037,0.0387,0.042,0.0503,0.0546,0.0627,0.0661,0.0709,0.073,0.0776,0.075,0.0801,0.0783,0.0786,0.0791,0.0792,0.0765,0.0734,0.0734,0.0792,0.0791,0.079,0.0789,0.0788,0,0.0206,0.0265,0.0301,0.0323,0.0397,0.0437,0.0485,0.0567,0.0621,0.0701,0.0744,0.0792,0.0829,0.0844,0.0855,0.0836,0.0906,0.0877,0.0861,0.0859,0.0844,0.0837,0.0915,0.0915,0.0915,0.0915,0.0915,0,0.0202,0.0231,0.0298,0.032,0.0382,0.0435,0.0514,0.0568,0.0653,0.0719,0.0771,0.0821,0.0858,0.0899,0.0887,0.0906,0.0934,0.0882,0.0879,0.0859,0.0852,0.0849,0.0841,0.0917,0.0916,0.0916,0.0916,0,0.0173,0.0213,0.0262,0.0343,0.0374,0.0423,0.0535,0.0586,0.0668,0.0754,0.0783,0.0868,0.0926,0.0952,0.0986,0.0957,0.0964,0.0959,0.0944,0.0936,0.0885,0.0879,0.0948,0.0948,0.0948,0.0948,0.0947,0,0.0162,0.018,0.027,0.0314,0.0357,0.0439,0.0495,0.0586,0.0643,0.0775,0.0808,0.0904,0.095,0.099,0.1006,0.1007,0.0989,0.0983,0.0928,0.0904,0.0894,0.0887,0.0881,0.0947,0.0947,0.0947,0.0947,0,0.0141,0.0172,0.0215,0.0299,0.0365,0.0439,0.0527,0.0567,0.0671,0.0745,0.0833,0.088,0.0955,0.0981,0.1003,0.0989,0.0982,0.0981,0.098,0.0928,0.0904,0.0892,0.0886,0.0947,0.0947,0.0947,0.0947,0,0.0123,0.0151,0.0209,0.0282,0.0357,0.0422,0.048,0.0561,0.0627,0.0764,0.0787,0.0882,0.0952,0.0974,0.0982,0.0987,0.0964,0.0918,0.092,0.0921,0.0891,0.0855,0.0897,0,0,0,0,0,0.0105,0.0136,0.0194,0.0277,0.0343,0.0391,0.0489,0.0543,0.0639,0.0689,0.0743,0.0806,0.0865,0.0908,0.0907,0.0955,0.0951,0.0948,0.0895,0.0944,0.0945,0.0912,0,0,0,0,0,0,0.0096,0.0144,0.0177,0.0242,0.0295,0.037,0.043,0.0502,0.0544,0.0643,0.0681,0.0755,0.0818,0.0853,0.0887,0.0899,0.0851,0.1002,0.1,0.0944,0.0944,0.0945,0.0911,0,0,0,0,0]},{"header":{"parameterUnit":"m.s-1","parameterCategory":2,"la1":30.2991,"la2":30.254,"lo1":-89.0895,"lo2":-89.0444,"dy":0.0017,"dx":0.0017,"nx":28,"ny":28,"refTime":"2025-11-07T09:00:00:Z","depth":"4","parameterNumber":3,"parameterNumberName":"V-component_of_CURRENTS"},"data":[0,0,0,0,0,0,0,0,0,0,0,0,0,0,0,0,0,0,0,0,0,0,0,0,0,0,0,0,0,0,0,0,0,0,0,0,0,0,0,0,0,0,0,0,0,0,0,0,0,0,0,0,0,0,0,0,0,0,0.0168,0.0168,0,0.0133,0.0132,0.0132,0.009,0.009,0.0089,0.0089,0.0004,0.0003,0.0001,0,0,0,0,0,0,0,0,0,0,0,0,0,0.0167,0.0167,0.0168,0.0168,0.0168,0.0133,0.0132,0.0131,0.0091,0.009,0.0089,0.0089,0.0005,0.0003,0.0001,0,0,0,0,0,0,0,0,0,0,0,0,0,0.0152,0.0167,0.0169,0.0144,0.0142,0.0133,0.0132,0.0131,0.0091,0.009,0.0089,0.0089,0.0006,0.0003,0.0,-0.0002,0,0,-0.0008,-0.0009,0,0,0,0,0,0,0,0,0.0153,0.0152,0.0148,0.0146,0.0143,0.0117,0.0101,0.0085,0.0091,0.0109,0.0089,0.0088,0.0039,0.0033,0.0027,-0.0006,-0.001,-0.0008,-0.001,-0.0011,-0.0012,0,0,0,0,0,0,0,0.0154,0.0153,0.0153,0.0148,0.0145,0.0124,0.0121,0.0097,0.0076,0.0107,0.0104,0.0103,0.0037,0.003,0.0024,-0.0011,-0.0008,-0.0011,-0.0012,-0.0013,-0.0102,-0.0103,0,0,0,0,0,0,0.0164,0.0154,0.0154,0.0152,0.0148,0.0124,0.0121,0.0125,0.0077,0.007,0.0104,0.0101,0.0035,0.0028,0.0021,-0.0003,-0.0011,-0.0014,-0.0015,-0.0102,-0.0102,-0.0103,0,0,0,0,0,0,0.0164,0.0165,0.0155,0.0153,0.015,0.0126,0.013,0.0124,0.0105,0.0076,0.0067,0.0088,0.0034,0.0025,-0.0013,-0.0006,-0.0015,-0.0017,-0.0101,-0.0102,-0.0103,-0.0041,0,0,0,0,0,0,0.0165,0.0165,0.0167,0.0154,0.0151,0.0152,0.013,0.0124,0.0107,0.0103,0.006,0.0052,0.0032,-0.0009,-0.0016,-0.001,-0.0019,-0.01,-0.0101,-0.0102,-0.0042,-0.004,-0.0038,0,0,0,0,0,0.0165,0.0179,0.0167,0.0167,0.0156,0.0153,0.0149,0.0127,0.0107,0.0105,0.0065,0.0053,-0.0023,-0.0012,-0.002,-0.0015,-0.0099,-0.0101,-0.0102,-0.0043,-0.004,-0.0038,0,0,0,0,0,0,0.0179,0.0175,0.0163,0.0174,0.0163,0.0146,0.0144,0.0123,0.0092,0.008,0.0045,0.0035,0.0003,-0.0022,-0.0008,-0.0049,-0.0064,-0.0067,-0.0016,-0.0014,-0.0012,-0.0002,-0.0022,0,0,0,0,0,0.0184,0.0192,0.018,0.0187,0.0183,0.0159,0.0152,0.0135,0.0109,0.0094,0.0062,0.0023,-0.0007,-0.0023,-0.0054,-0.0073,-0.0114,-0.0079,-0.0077,-0.0074,-0.0075,-0.0137,-0.014,-0.0109,-0.0109,-0.0109,0,0,0.0192,0.019,0.0194,0.019,0.0178,0.0184,0.0152,0.0143,0.0144,0.009,0.0071,0.0028,-0.0013,-0.0035,-0.0051,-0.0055,-0.0105,-0.0077,-0.0074,-0.0076,-0.0139,-0.0142,-0.0144,-0.011,-0.011,-0.0109,0,0,0.0217,0.021,0.0224,0.0219,0.0205,0.0195,0.0191,0.0167,0.0151,0.0124,0.0086,0.0046,-0.0001,-0.0022,-0.004,-0.0048,-0.0095,-0.0065,-0.0039,-0.0099,-0.0102,-0.0104,-0.0156,-0.0164,-0.006,-0.006,-0.006,0,0.0223,0.024,0.0226,0.0237,0.0237,0.0202,0.0214,0.0202,0.0165,0.0143,0.0123,0.0033,0.001,-0.0022,-0.0019,-0.0039,-0.0088,-0.0038,-0.0094,-0.0098,-0.0102,-0.0154,-0.0163,-0.0057,-0.0057,-0.0057,-0.0058,0,0.0258,0.0268,0.0277,0.0282,0.028,0.0284,0.0268,0.0252,0.0218,0.0189,0.0133,0.0086,0.0025,0.002,0.0003,-0.0035,-0.0066,-0.0084,-0.0093,-0.0101,-0.0156,-0.0167,-0.0053,-0.0054,-0.0055,-0.0055,0,0,0.0275,0.0298,0.0298,0.0297,0.0302,0.0294,0.0306,0.0287,0.0253,0.0217,0.0165,0.0135,0.0077,0.0051,0.0015,-0.002,-0.0073,-0.0059,-0.0063,-0.0096,-0.0214,-0.0189,-0.0199,-0.011,-0.0112,-0.0113,-0.0239,0,0.03,0.0329,0.0338,0.0353,0.036,0.0343,0.0343,0.0317,0.0274,0.0213,0.0164,0.0093,0.0099,0.0044,0.0018,-0.0072,-0.0102,-0.0038,-0.0214,-0.0219,-0.0185,-0.0211,-0.0118,-0.0247,-0.025,-0.0252,-0.0253,0,0.0323,0.0338,0.0366,0.0362,0.036,0.0363,0.0325,0.0316,0.0248,0.0203,0.0141,0.0075,0.0015,0.0009,-0.0109,-0.0078,-0.0133,-0.0184,-0.0191,-0.0197,-0.0215,-0.0243,-0.0273,-0.0272,-0.027,-0.0269,-0.0268,0,0.0316,0.0346,0.0364,0.0369,0.0368,0.0362,0.035,0.0301,0.0263,0.0176,0.0114,0.0035,-0.0044,-0.0112,-0.0192,-0.0176,-0.033,-0.0327,-0.0348,-0.0347,-0.0357,-0.0353,-0.04,-0.04,-0.0399,-0.0399,-0.0399,0,0.0328,0.0334,0.0355,0.0357,0.034,0.0344,0.0297,0.0271,0.0205,0.0153,0.0091,0.0028,-0.0083,-0.0175,-0.0225,-0.0323,-0.036,-0.0351,-0.0381,-0.0329,-0.032,-0.0365,-0.0359,-0.0404,-0.0403,-0.0402,-0.0401,0,0.0304,0.0332,0.0335,0.034,0.0334,0.031,0.0268,0.0227,0.0175,0.0104,0.0071,-0.0025,-0.0135,-0.0229,-0.0366,-0.0381,-0.0467,-0.0483,-0.0425,-0.0449,-0.0437,-0.0427,-0.0537,-0.0538,-0.0538,-0.0538,-0.0538,0,0.0289,0.0295,0.0303,0.0291,0.0289,0.0259,0.0234,0.0203,0.0177,0.0092,0.0065,-0.0068,-0.0125,-0.0301,-0.0388,-0.0509,-0.0497,-0.0546,-0.0472,-0.0434,-0.0453,-0.0442,-0.0432,-0.0539,-0.0539,-0.0539,-0.0539,0,0.0235,0.0243,0.0236,0.0231,0.0214,0.021,0.0191,0.017,0.0146,0.0097,0.0047,-0.0043,-0.017,-0.0286,-0.0395,-0.0461,-0.0522,-0.0548,-0.0547,-0.0478,-0.0437,-0.0453,-0.0443,-0.0539,-0.0539,-0.0539,-0.0539,0,0.0161,0.0148,0.0146,0.0148,0.0147,0.0175,0.0168,0.0159,0.0134,0.0086,0.0071,-0.0049,-0.0129,-0.0262,-0.0348,-0.0435,-0.0436,-0.0431,-0.0436,-0.0436,-0.0352,-0.0281,-0.037,0,0,0,0,0,0.0074,0.0065,0.0062,0.0079,0.0106,0.0129,0.0146,0.0151,0.0147,0.0123,0.0104,0.001,-0.0136,-0.021,-0.0291,-0.0356,-0.0463,-0.0452,-0.0461,-0.0543,-0.0542,-0.0455,0,0,0,0,0,0,-0.0005,-0.002,0.0031,0.005,0.0072,0.0105,0.0135,0.0143,0.0143,0.0124,0.0046,0.001,-0.0141,-0.0092,-0.0289,-0.032,-0.0328,-0.0527,-0.0528,-0.0544,-0.0543,-0.0542,-0.0453,0,0,0,0,0]}]]